This demonstration page uses our WeatherBlox Daily Observations layout. Learn more.

Left ArrowRight Arrow

Hourly Observations for May 17, 2022

Temp ( °F °C ) Dew Point ( °F °C ) Humidity (%) Winds ( mph kmh ) Pressure ( in mb ) Visibility ( mi km ) Precip ( " mm )
12:53 am 00:53 Clear 63 17.2 45 7.2 52 52 N 3 6 29.94 1014 10 16 0.00 0.00
1:53 am 01:53 Clear 60 15.6 46 7.8 60 60 N 3 6 29.95 1014 10 16 0.00 0.00
2:53 am 02:53 Clear 64 17.8 41 5 43 43 N 6 9 29.95 1014 10 16 0.00 0.00
3:53 am 03:53 Clear 61 16.1 42 5.6 50 50 Calm 29.95 1014 10 16 0.00 0.00
4:53 am 04:53 Clear 56 13.3 44 6.7 65 65 NW 3 6 29.96 1015 10 16 0.00 0.00
5:53 am 05:53 Sunny 55 12.8 44 6.7 67 67 N 5 7 29.96 1015 10 16 0.00 0.00
6:53 am 06:53 Sunny 64 17.8 42 5.6 45 45 NW 6 9 29.99 1016 10 16 0.00 0.00
7:53 am 07:53 Sunny 68 20 43 6.1 40 40 NW 7 11 30.00 1016 10 16 0.00 0.00
8:53 am 08:53 Sunny 72 22.2 44 6.7 37 37 VRB 6 9 30.01 1016 10 16 0.00 0.00
9:53 am 09:53 Sunny 77 25 41 5 28 28 N 9 15 30.00 1016 10 16 0.00 0.00
10:53 am 10:53 Sunny 80 26.7 42 5.6 26 26 NW 9 15 29.99 1016 10 16 0.00 0.00
11:53 am 11:53 Sunny 84 28.9 38 3.3 19 19 N 8 13 29.99 1016 10 16 0.00 0.00
12:53 pm 12:53 Sunny 87 30.6 28 -2.2 12 12 NW 9 15 29.97 1015 10 16 0.00 0.00
1:53 pm 13:53 Sunny 88 31.1 26 -3.3 10 10 NNW 8 13 29.95 1014 10 16 0.00 0.00
2:53 pm 14:53 Sunny 90 32.2 23 -5 9 9 NNW 12 19 29.94 1014 10 16 0.00 0.00
3:53 pm 15:53 Sunny 91 32.8 30 -1.1 11 11 N 8 13 29.93 1014 10 16 0.00 0.00
4:53 pm 16:53 Sunny 91 32.8 29 -1.7 11 11 WNW 3 6 29.92 1013 10 16 0.00 0.00
5:53 pm 17:53 Sunny 91 32.8 28 -2.2 10 10 VRB 5 7 29.91 1013 10 16 0.00 0.00
6:53 pm 18:53 Sunny 90 32.2 32 0 13 13 W 6 9 29.90 1013 10 16 0.00 0.00
7:53 pm 19:53 Sunny 85 29.4 36 2.2 17 17 WNW 3 6 29.91 1013 10 16 0.00 0.00
8:53 pm 20:53 Clear 82 27.8 35 1.7 18 18 NW 6 9 29.92 1013 10 16 0.00 0.00
9:53 pm 21:53 Clear 81 27.2 34 1.1 18 18 NW 10 17 29.95 1014 10 16 0.00 0.00
10:53 pm 22:53 Clear 76 24.4 38 3.3 25 25 N 8 13 29.97 1015 10 16 0.00 0.00
11:53 pm 23:53 Clear 78 25.6 34 1.1 20 20 NNW 8 13 29.98 1015 10 16 0.00 0.00

Powered by AerisWeather